Welcome to Northern Hawkes Bay. New Zealand.
PWS Header
      nz Flag



Hit Counter


W3C Valid W3C Valid logo


    Wairoa

Select any of the Stations below to visit their websites.










Historic Data from Weather Underground
Select the location of interest below. Wairoa is the default. Please have patience, this Data is slow to load in.
Northern Hawkes Bay Historical Data
Daily Summary for April 18, 2017 Units:  Metric    English   Both
« Previous Day
Next Day »
Daily Weekly Monthly Yearly Custom
  High: Low: Average:
Temperature: 15.5 °C 12.6 °C 14.3 °C
Dew Point: 13.5 °C 10.8 °C 12.4 °C
Humidity: 98% 74% 88%
Wind Speed: 28.0km/h 0.0km/h 11.3km/h
Wind Gust: 36.7km/h - -
Wind- - SW
Pressure: 1023.2 hPa 1017.8 hPa -
Precipitation: 1.3 mm    
Historical Graphs
 
 
Tabular Data for April 18, 2017
Time Temperature Dew Point Pressure Wind Wind Speed Wind Gust Humidity Rainfall Rate (Hourly) solar
00:04 14.5 °C 12.9 °C 1017.8 hPa WSW 9.7 km/h 31.7 km/h 90% 0.0 mm 0 W/m2
00:09 14.5 °C 12.9 °C 1017.8 hPa WSW 12.2 km/h 27.0 km/h 90% 0.0 mm 0 W/m2
00:14 14.5 °C 12.9 °C 1017.8 hPa SW 12.2 km/h 27.0 km/h 90% 0.0 mm 0 W/m2
00:19 14.6 °C 13.0 °C 1017.8 hPa SW 18.3 km/h 31.7 km/h 90% 0.0 mm 0 W/m2
00:24 14.6 °C 12.8 °C 1017.8 hPa WSW 18.3 km/h 31.7 km/h 89% 0.0 mm 0 W/m2
00:29 14.5 °C 12.7 °C 1017.8 hPa WSW 13.4 km/h 30.6 km/h 89% 0.0 mm 0 W/m2
00:34 14.5 °C 12.9 °C 1018.2 hPa WSW 12.2 km/h 29.4 km/h 90% 0.0 mm 0 W/m2
00:39 14.6 °C 12.8 °C 1018.2 hPa SW 15.8 km/h 25.6 km/h 89% 0.0 mm 0 W/m2
00:44 14.5 °C 12.9 °C 1018.2 hPa SW 9.7 km/h 25.6 km/h 90% 0.0 mm 0 W/m2
00:49 14.5 °C 12.7 °C 1018.2 hPa SW 11.1 km/h 24.5 km/h 89% 0.0 mm 0 W/m2
00:54 14.5 °C 12.7 °C 1018.2 hPa SW 17.2 km/h 27.0 km/h 89% 0.0 mm 0 W/m2
00:59 14.5 °C 12.7 °C 1018.2 hPa WSW 23.3 km/h 35.6 km/h 89% 0.0 mm 0 W/m2
01:04 14.5 °C 12.7 °C 1018.2 hPa West 14.8 km/h 35.6 km/h 89% 0.0 mm 0 W/m2
01:09 14.5 °C 12.7 °C 1018.2 hPa WSW 11.1 km/h 33.1 km/h 89% 0.0 mm 0 W/m2
01:14 14.5 °C 12.7 °C 1018.2 hPa WSW 15.8 km/h 28.0 km/h 89% 0.0 mm 0 W/m2
01:19 14.5 °C 12.7 °C 1018.5 hPa WSW 20.9 km/h 30.6 km/h 89% 0.0 mm 0 W/m2
01:24 14.5 °C 12.7 °C 1018.5 hPa SW 17.2 km/h 30.6 km/h 89% 0.0 mm 0 W/m2
01:29 14.5 °C 12.7 °C 1018.2 hPa WSW 9.7 km/h 30.6 km/h 89% 0.0 mm 0 W/m2
01:34 14.4 °C 12.6 °C 1018.5 hPa WSW 20.9 km/h 31.7 km/h 89% 0.0 mm 0 W/m2
01:51 14.5 °C 12.9 °C 1018.2 hPa WSW 18.3 km/h 34.3 km/h 90% 0.0 mm 0 W/m2
01:56 14.5 °C 12.9 °C 1018.2 hPa West 17.2 km/h 34.3 km/h 90% 0.0 mm 0 W/m2
02:01 14.5 °C 12.9 °C 1018.5 hPa WSW 17.2 km/h 33.1 km/h 90% 0.0 mm 0 W/m2
02:06 14.5 °C 12.9 °C 1018.5 hPa SW 13.4 km/h 28.0 km/h 90% 0.0 mm 0 W/m2
02:11 14.5 °C 12.9 °C 1018.5 hPa WSW 15.8 km/h 28.0 km/h 90% 0.0 mm 0 W/m2
02:16 14.5 °C 12.9 °C 1018.5 hPa WSW 18.3 km/h 29.4 km/h 90% 0.0 mm 0 W/m2
02:21 14.5 °C 12.9 °C 1018.5 hPa WSW 19.5 km/h 29.4 km/h 90% 0.0 mm 0 W/m2
02:26 14.6 °C 13.0 °C 1018.5 hPa WSW 19.5 km/h 29.4 km/h 90% 0.0 mm 0 W/m2
02:31 14.6 °C 13.0 °C 1018.2 hPa WSW 19.5 km/h 33.1 km/h 90% 0.0 mm 0 W/m2
02:36 14.6 °C 13.0 °C 1018.5 hPa WSW 21.9 km/h 33.1 km/h 90% 0.0 mm 0 W/m2
02:41 14.6 °C 12.8 °C 1018.5 hPa SW 20.9 km/h 34.3 km/h 89% 0.0 mm 0 W/m2
02:46 14.5 °C 12.7 °C 1018.5 hPa WSW 17.2 km/h 34.3 km/h 89% 0.0 mm 0 W/m2
02:51 14.5 °C 12.7 °C 1018.5 hPa WSW 17.2 km/h 33.1 km/h 89% 0.0 mm 0 W/m2
02:52 14.5 °C 12.7 °C 1018.5 hPa SW 11.1 km/h 33.1 km/h 89% 0.0 mm 0 W/m2
02:57 14.5 °C 12.7 °C 1018.5 hPa SW 15.8 km/h 31.7 km/h 89% 0.0 mm 0 W/m2
03:02 14.6 °C 12.8 °C 1018.8 hPa SW 14.8 km/h 34.3 km/h 89% 0.0 mm 0 W/m2
03:07 14.6 °C 12.7 °C 1018.5 hPa SW 25.6 km/h 34.3 km/h 88% 0.0 mm 0 W/m2
03:12 14.5 °C 12.6 °C 1018.5 hPa SW 20.9 km/h 31.7 km/h 88% 0.0 mm 0 W/m2
03:17 14.5 °C 12.6 °C 1018.5 hPa SW 28.0 km/h 34.3 km/h 88% 0.0 mm 0 W/m2
03:22 14.6 °C 12.7 °C 1018.8 hPa SW 18.3 km/h 34.3 km/h 88% 0.0 mm 0 W/m2
03:27 14.5 °C 12.6 °C 1018.8 hPa WSW 14.8 km/h 33.1 km/h 88% 0.0 mm 0 W/m2
03:32 14.6 °C 12.7 °C 1018.8 hPa WSW 15.8 km/h 29.4 km/h 88% 0.0 mm 0 W/m2
03:37 14.6 °C 12.4 °C 1018.8 hPa SW 15.8 km/h 34.3 km/h 87% 0.0 mm 0 W/m2
03:42 14.6 °C 12.4 °C 1018.8 hPa SW 19.5 km/h 36.7 km/h 87% 0.0 mm 0 W/m2
03:47 14.6 °C 12.4 °C 1018.8 hPa SW 17.2 km/h 36.7 km/h 87% 0.0 mm 0 W/m2
03:52 14.6 °C 12.4 °C 1018.8 hPa SW 15.8 km/h 30.6 km/h 87% 0.0 mm 0 W/m2
03:57 14.6 °C 12.3 °C 1018.8 hPa SW 21.9 km/h 30.6 km/h 86% 0.0 mm 0 W/m2
04:02 14.6 °C 12.3 °C 1018.8 hPa SW 18.3 km/h 30.6 km/h 86% 0.0 mm 0 W/m2
04:07 14.6 °C 12.4 °C 1018.8 hPa WSW 19.5 km/h 33.1 km/h 87% 0.0 mm 0 W/m2
04:12 14.5 °C 12.4 °C 1018.8 hPa SW 17.2 km/h 33.1 km/h 87% 0.0 mm 0 W/m2
04:17 14.5 °C 12.4 °C 1018.8 hPa SW 13.4 km/h 33.1 km/h 87% 0.0 mm 0 W/m2
04:22 14.5 °C 12.4 °C 1018.8 hPa SW 19.5 km/h 28.0 km/h 87% 0.0 mm 0 W/m2
04:40 14.6 °C 12.4 °C 1019.2 hPa WSW 17.2 km/h 30.6 km/h 87% 0.0 mm 0 W/m2
04:45 14.6 °C 12.4 °C 1019.2 hPa SW 28.0 km/h 33.1 km/h 87% 0.0 mm 0 W/m2
04:50 14.6 °C 12.7 °C 1019.5 hPa SW 9.7 km/h 33.1 km/h 88% 0.0 mm 0 W/m2
04:55 14.6 °C 12.4 °C 1019.2 hPa WSW 15.8 km/h 33.1 km/h 87% 0.0 mm 0 W/m2
05:00 14.6 °C 12.4 °C 1019.2 hPa WSW 17.2 km/h 35.6 km/h 87% 0.0 mm 0 W/m2
05:05 14.5 °C 12.4 °C 1019.5 hPa SW 14.8 km/h 35.6 km/h 87% 0.0 mm 0 W/m2
05:10 14.5 °C 12.2 °C 1019.5 hPa SW 23.3 km/h 33.1 km/h 86% 0.0 mm 0 W/m2
05:15 14.5 °C 12.2 °C 1019.5 hPa SW 17.2 km/h 33.1 km/h 86% 0.0 mm 0 W/m2
05:20 14.4 °C 12.1 °C 1019.5 hPa SW 17.2 km/h 30.6 km/h 86% 0.0 mm 0 W/m2
05:25 14.3 °C 12.0 °C 1019.9 hPa SW 12.2 km/h 28.0 km/h 86% 0.0 mm 0 W/m2
05:30 14.3 °C 12.2 °C 1019.9 hPa WSW 23.3 km/h 28.0 km/h 87% 0.0 mm 0 W/m2
05:35 14.3 °C 12.2 °C 1019.9 hPa SW 17.2 km/h 27.0 km/h 87% 0.0 mm 0 W/m2
05:40 14.3 °C 12.2 °C 1019.9 hPa SW 14.8 km/h 25.6 km/h 87% 0.0 mm 0 W/m2
05:45 14.2 °C 11.9 °C 1019.9 hPa WSW 18.3 km/h 25.6 km/h 86% 0.0 mm 0 W/m2
05:51 14.2 °C 12.1 °C 1019.9 hPa WSW 12.2 km/h 34.3 km/h 87% 0.0 mm 0 W/m2
05:56 14.2 °C 11.9 °C 1019.9 hPa WSW 11.1 km/h 34.3 km/h 86% 0.0 mm 0 W/m2
06:01 14.1 °C 12.0 °C 1019.9 hPa WSW 18.3 km/h 30.6 km/h 87% 0.0 mm 0 W/m2
06:06 14.1 °C 12.0 °C 1020.2 hPa WSW 15.8 km/h 23.3 km/h 87% 0.0 mm 0 W/m2
06:11 14.1 °C 12.0 °C 1019.9 hPa WSW 13.4 km/h 34.3 km/h 87% 0.0 mm 0 W/m2
06:16 14.1 °C 12.2 °C 1020.2 hPa SW 20.9 km/h 34.3 km/h 88% 0.0 mm 0 W/m2
06:21 14.0 °C 12.1 °C 1020.2 hPa SW 11.1 km/h 27.0 km/h 88% 0.0 mm 0 W/m2
06:26 14.0 °C 12.2 °C 1020.2 hPa WSW 14.8 km/h 28.0 km/h 89% 0.0 mm 0 W/m2
06:31 14.0 °C 12.2 °C 1020.2 hPa West 17.2 km/h 30.6 km/h 89% 0.0 mm 0 W/m2
06:36 14.0 °C 12.1 °C 1020.2 hPa WSW 19.5 km/h 30.6 km/h 88% 0.0 mm 0 W/m2
06:41 14.0 °C 12.1 °C 1020.2 hPa SW 17.2 km/h 29.4 km/h 88% 0.0 mm 0 W/m2
06:46 13.8 °C 12.4 °C 1020.5 hPa WSW 15.8 km/h 29.4 km/h 91% 0.0 mm 2 W/m2
06:51 13.6 °C 12.3 °C 1020.5 hPa WSW 7.2 km/h 28.0 km/h 92% 0.0 mm 4 W/m2
06:56 13.6 °C 12.7 °C 1020.5 hPa SW 13.4 km/h 23.3 km/h 94% 0.0 mm 5 W/m2
07:01 13.6 °C 12.8 °C 1020.5 hPa SW 17.2 km/h 24.5 km/h 95% 0.0 mm 9 W/m2
07:06 13.5 °C 12.7 °C 1020.9 hPa WSW 11.1 km/h 31.7 km/h 95% 0.3 mm 11 W/m2
07:11 13.4 °C 12.8 °C 1020.9 hPa SW 17.2 km/h 31.7 km/h 96% 0.3 mm 13 W/m2
07:16 13.2 °C 12.6 °C 1020.9 hPa WSW 9.7 km/h 31.7 km/h 96% 0.3 mm 16 W/m2
07:21 13.2 °C 12.6 °C 1020.9 hPa WSW 5.0 km/h 23.3 km/h 96% 0.3 mm 15 W/m2
07:26 13.1 °C 12.7 °C 1021.2 hPa WSW 11.1 km/h 21.9 km/h 97% 0.3 mm 16 W/m2
07:31 13.1 °C 12.7 °C 1021.2 hPa WSW 11.1 km/h 21.9 km/h 97% 0.3 mm 15 W/m2
07:36 13.0 °C 12.6 °C 1021.2 hPa WSW 6.1 km/h 24.5 km/h 97% 0.3 mm 21 W/m2
07:41 13.0 °C 12.6 °C 1021.2 hPa WSW 8.7 km/h 24.5 km/h 97% 0.3 mm 13 W/m2
07:46 13.0 °C 12.6 °C 1021.6 hPa West 11.1 km/h 19.5 km/h 97% 0.3 mm 20 W/m2
07:51 13.0 °C 12.6 °C 1021.6 hPa West 9.7 km/h 24.5 km/h 97% 0.3 mm 31 W/m2
07:56 13.0 °C 12.6 °C 1021.6 hPa West 7.2 km/h 27.0 km/h 97% 0.3 mm 36 W/m2
08:01 13.1 °C 12.7 °C 1021.6 hPa WSW 6.1 km/h 27.0 km/h 97% 0.3 mm 45 W/m2
08:06 13.2 °C 12.7 °C 1021.6 hPa SW 12.2 km/h 19.5 km/h 97% 0.0 mm 42 W/m2
08:11 13.3 °C 12.8 °C 1021.6 hPa WSW 12.2 km/h 19.5 km/h 97% 0.0 mm 46 W/m2
08:16 13.3 °C 12.8 °C 1021.6 hPa WSW 5.0 km/h 18.3 km/h 97% 0.0 mm 34 W/m2
08:21 13.2 °C 12.7 °C 1021.6 hPa SW 11.1 km/h 24.5 km/h 97% 0.0 mm 27 W/m2
08:26 13.2 °C 12.6 °C 1021.9 hPa SW 9.7 km/h 25.6 km/h 96% 0.0 mm 35 W/m2
08:31 13.2 °C 12.6 °C 1021.6 hPa WSW 7.2 km/h 25.6 km/h 96% 0.0 mm 49 W/m2
08:36 13.3 °C 12.7 °C 1021.9 hPa West 12.2 km/h 23.3 km/h 96% 0.0 mm 41 W/m2
08:41 13.4 °C 12.8 °C 1021.9 hPa West 14.8 km/h 21.9 km/h 96% 0.0 mm 55 W/m2
08:46 13.3 °C 12.7 °C 1021.9 hPa WSW 14.8 km/h 25.6 km/h 96% 0.0 mm 45 W/m2
08:51 13.3 °C 12.7 °C 1022.2 hPa WSW 13.4 km/h 25.6 km/h 96% 0.0 mm 67 W/m2
08:56 13.2 °C 12.6 °C 1021.9 hPa WSW 11.1 km/h 25.6 km/h 96% 0.3 mm 79 W/m2
09:01 13.1 °C 12.7 °C 1022.2 hPa WSW 1.1 km/h 25.6 km/h 97% 0.3 mm 68 W/m2
09:06 13.1 °C 12.7 °C 1021.9 hPa WSW 6.1 km/h 21.9 km/h 97% 0.3 mm 118 W/m2
09:11 13.1 °C 12.7 °C 1021.9 hPa WSW 5.0 km/h 19.5 km/h 97% 0.3 mm 77 W/m2
09:16 13.1 °C 12.7 °C 1022.2 hPa WSW 8.7 km/h 19.5 km/h 97% 0.3 mm 68 W/m2
09:21 13.1 °C 12.8 °C 1022.2 hPa WSW 11.1 km/h 17.2 km/h 98% 0.3 mm 80 W/m2
09:26 13.2 °C 12.9 °C 1022.2 hPa WSW 9.7 km/h 17.2 km/h 98% 0.3 mm 73 W/m2
09:31 13.2 °C 12.9 °C 1022.2 hPa WSW 8.7 km/h 15.8 km/h 98% 0.3 mm 97 W/m2
09:36 13.4 °C 12.9 °C 1022.2 hPa WSW 17.2 km/h 25.6 km/h 97% 0.3 mm 98 W/m2
09:41 13.6 °C 13.1 °C 1022.2 hPa West 17.2 km/h 27.0 km/h 97% 0.5 mm 85 W/m2
09:46 13.8 °C 13.0 °C 1021.9 hPa WSW 18.3 km/h 30.6 km/h 95% 0.5 mm 115 W/m2
09:51 14.1 °C 12.8 °C 1022.2 hPa WSW 14.8 km/h 30.6 km/h 92% 0.5 mm 169 W/m2
09:56 14.5 °C 13.1 °C 1022.2 hPa SW 14.8 km/h 30.6 km/h 91% 0.3 mm 204 W/m2
10:01 14.7 °C 13.1 °C 1021.9 hPa SW 21.9 km/h 25.6 km/h 90% 0.3 mm 228 W/m2
10:06 14.9 °C 12.9 °C 1022.2 hPa WSW 8.7 km/h 25.6 km/h 88% 0.3 mm 212 W/m2
10:11 15.0 °C 12.8 °C 1022.2 hPa WSW 18.3 km/h 28.0 km/h 87% 0.3 mm 136 W/m2
10:16 15.0 °C 12.8 °C 1021.9 hPa WSW 14.8 km/h 28.0 km/h 87% 0.3 mm 191 W/m2
10:21 15.2 °C 12.9 °C 1022.2 hPa SW 14.8 km/h 30.6 km/h 86% 0.3 mm 173 W/m2
10:26 15.2 °C 12.7 °C 1022.2 hPa SW 17.2 km/h 30.6 km/h 85% 0.3 mm 158 W/m2
10:31 15.3 °C 12.8 °C 1022.2 hPa WSW 14.8 km/h 25.6 km/h 85% 0.3 mm 266 W/m2
10:36 15.4 °C 12.7 °C 1022.2 hPa WSW 21.9 km/h 28.0 km/h 84% 0.3 mm 200 W/m2
10:41 15.3 °C 12.6 °C 1022.2 hPa SW 21.9 km/h 29.4 km/h 84% 0.0 mm 171 W/m2
10:46 15.3 °C 12.6 °C 1022.2 hPa SW 17.2 km/h 29.4 km/h 84% 0.0 mm 195 W/m2
10:51 15.3 °C 12.6 °C 1022.2 hPa SW 11.1 km/h 29.4 km/h 84% 0.0 mm 181 W/m2
10:56 15.3 °C 12.6 °C 1022.2 hPa WSW 17.2 km/h 29.4 km/h 84% 0.0 mm 139 W/m2
11:01 15.3 °C 12.6 °C 1022.2 hPa SW 18.3 km/h 27.0 km/h 84% 0.0 mm 125 W/m2
11:06 15.2 °C 12.5 °C 1022.2 hPa SW 18.3 km/h 27.0 km/h 84% 0.0 mm 97 W/m2
11:11 15.0 °C 12.3 °C 1022.6 hPa SW 20.9 km/h 28.0 km/h 84% 0.0 mm 100 W/m2
11:16 15.0 °C 12.3 °C 1022.6 hPa SW 18.3 km/h 31.7 km/h 84% 0.0 mm 117 W/m2
11:21 15.0 °C 12.3 °C 1022.6 hPa SW 20.9 km/h 31.7 km/h 84% 0.0 mm 131 W/m2
11:26 15.0 °C 12.3 °C 1022.6 hPa SW 19.5 km/h 30.6 km/h 84% 0.0 mm 122 W/m2
11:31 15.1 °C 12.4 °C 1022.6 hPa SW 17.2 km/h 28.0 km/h 84% 0.0 mm 155 W/m2
11:36 15.2 °C 12.3 °C 1022.6 hPa SW 12.2 km/h 25.6 km/h 83% 0.0 mm 163 W/m2
11:41 15.3 °C 12.6 °C 1022.6 hPa SW 19.5 km/h 29.4 km/h 84% 0.0 mm 212 W/m2
11:46 15.4 °C 12.7 °C 1022.2 hPa SW 17.2 km/h 29.4 km/h 84% 0.0 mm 201 W/m2
11:51 15.4 °C 12.7 °C 1022.2 hPa SW 12.2 km/h 29.4 km/h 84% 0.0 mm 188 W/m2
11:56 15.3 °C 12.8 °C 1022.6 hPa SW 14.8 km/h 28.0 km/h 85% 0.0 mm 194 W/m2
12:01 15.3 °C 12.6 °C 1022.2 hPa WSW 12.2 km/h 28.0 km/h 84% 0.0 mm 249 W/m2
12:06 15.3 °C 12.8 °C 1022.2 hPa SW 17.2 km/h 27.0 km/h 85% 0.0 mm 219 W/m2
12:11 15.2 °C 12.9 °C 1022.2 hPa SW 21.9 km/h 29.4 km/h 86% 0.0 mm 240 W/m2
12:16 15.1 °C 12.6 °C 1022.2 hPa WSW 15.8 km/h 29.4 km/h 85% 0.0 mm 227 W/m2
12:21 15.2 °C 12.7 °C 1022.2 hPa WSW 11.1 km/h 29.4 km/h 85% 0.0 mm 230 W/m2
12:24 15.2 °C 12.7 °C 1022.2 hPa SW 14.8 km/h 25.6 km/h 85% 0.0 mm 179 W/m2
12:29 15.1 °C 12.8 °C 1021.9 hPa SW 12.2 km/h 28.0 km/h 86% 0.0 mm 272 W/m2
12:34 15.3 °C 13.0 °C 1022.2 hPa WSW 15.8 km/h 28.0 km/h 86% 0.0 mm 267 W/m2
12:39 15.5 °C 12.8 °C 1022.2 hPa West 13.4 km/h 23.3 km/h 84% 0.0 mm 153 W/m2
12:44 15.4 °C 12.6 °C 1022.2 hPa WSW 14.8 km/h 27.0 km/h 83% 0.0 mm 107 W/m2
12:49 15.0 °C 12.5 °C 1022.2 hPa SW 17.2 km/h 29.4 km/h 85% 0.0 mm 152 W/m2
12:54 14.5 °C 12.7 °C 1022.2 hPa SW 17.2 km/h 29.4 km/h 89% 0.0 mm 168 W/m2
12:59 14.2 °C 12.9 °C 1022.2 hPa SW 15.8 km/h 28.0 km/h 92% 0.0 mm 180 W/m2
13:04 14.1 °C 13.0 °C 1021.9 hPa SW 14.8 km/h 28.0 km/h 93% 0.0 mm 213 W/m2
13:09 14.1 °C 13.2 °C 1022.2 hPa SW 14.8 km/h 27.0 km/h 94% 0.0 mm 235 W/m2
13:10 14.1 °C 13.2 °C 1021.9 hPa SW 14.8 km/h 27.0 km/h 94% 0.0 mm 243 W/m2
13:15 14.2 °C 13.4 °C 1022.2 hPa SW 18.3 km/h 25.6 km/h 95% 0.0 mm 239 W/m2
13:20 14.3 °C 13.5 °C 1021.9 hPa WSW 12.2 km/h 25.6 km/h 95% 0.0 mm 184 W/m2
13:26 14.1 °C 13.2 °C 1021.9 hPa WSW 8.7 km/h 23.3 km/h 94% 0.0 mm 120 W/m2
13:31 14.3 °C 13.3 °C 1021.9 hPa Calm   23.3 km/h 94% 0.0 mm 164 W/m2
13:36 14.4 °C 13.4 °C 1021.9 hPa West 5.0 km/h 13.4 km/h 94% 0.0 mm 94 W/m2
13:41 14.4 °C 13.3 °C 1021.9 hPa SW 11.1 km/h 24.5 km/h 93% 0.0 mm 81 W/m2
13:46 14.8 °C 12.8 °C 1021.9 hPa SW 12.2 km/h 28.0 km/h 88% 0.0 mm 92 W/m2
13:51 15.0 °C 12.5 °C 1021.6 hPa SSW 13.4 km/h 33.1 km/h 85% 0.0 mm 92 W/m2
13:56 15.1 °C 12.8 °C 1021.9 hPa SSW 17.2 km/h 33.1 km/h 86% 0.0 mm 131 W/m2
14:01 15.2 °C 12.9 °C 1021.9 hPa SSW 17.2 km/h 31.7 km/h 86% 0.0 mm 130 W/m2
14:19 15.2 °C 12.7 °C 1021.9 hPa SSW 15.8 km/h 27.0 km/h 85% 0.0 mm 123 W/m2
14:24 15.1 °C 12.6 °C 1021.9 hPa SW 17.2 km/h 28.0 km/h 85% 0.0 mm 135 W/m2
14:29 15.2 °C 12.5 °C 1022.2 hPa SSW 11.1 km/h 28.0 km/h 84% 0.0 mm 135 W/m2
14:34 15.3 °C 12.6 °C 1022.2 hPa SSW 9.7 km/h 28.0 km/h 84% 0.0 mm 123 W/m2
14:39 15.3 °C 12.6 °C 1021.9 hPa SSW 9.7 km/h 24.5 km/h 84% 0.0 mm 105 W/m2
14:44 15.2 °C 12.5 °C 1021.9 hPa SSW 13.4 km/h 24.5 km/h 84% 0.0 mm 94 W/m2
14:49 15.3 °C 12.4 °C 1021.9 hPa SSW 11.1 km/h 20.9 km/h 83% 0.0 mm 84 W/m2
14:54 15.3 °C 12.4 °C 1021.9 hPa SSW 11.1 km/h 20.9 km/h 83% 0.0 mm 85 W/m2
15:00 15.3 °C 12.4 °C 1021.9 hPa SSW 12.2 km/h 20.9 km/h 83% 0.0 mm 84 W/m2
15:05 15.4 °C 12.6 °C 1021.9 hPa SSW 11.1 km/h 21.9 km/h 83% 0.0 mm 94 W/m2
15:10 15.4 °C 12.6 °C 1021.9 hPa SSW 14.8 km/h 21.9 km/h 83% 0.0 mm 104 W/m2
15:15 15.4 °C 12.6 °C 1021.9 hPa SSW 15.8 km/h 23.3 km/h 83% 0.0 mm 114 W/m2
15:20 15.5 °C 12.6 °C 1021.9 hPa SW 14.8 km/h 24.5 km/h 83% 0.0 mm 107 W/m2
15:26 15.5 °C 12.6 °C 1021.9 hPa SSW 12.2 km/h 24.5 km/h 83% 0.3 mm 78 W/m2
15:31 14.9 °C 12.4 °C 1021.9 hPa SSW 12.2 km/h 25.6 km/h 85% 0.3 mm 67 W/m2
15:36 14.6 °C 12.3 °C 1021.9 hPa SSW 11.1 km/h 25.6 km/h 86% 0.3 mm 69 W/m2
15:41 14.7 °C 12.4 °C 1021.9 hPa SSW 11.1 km/h 23.3 km/h 86% 0.3 mm 79 W/m2
15:46 14.9 °C 12.2 °C 1021.9 hPa South 15.8 km/h 23.3 km/h 84% 0.3 mm 87 W/m2
15:51 15.1 °C 12.2 °C 1021.9 hPa SSW 13.4 km/h 20.9 km/h 83% 0.3 mm 84 W/m2
15:56 15.3 °C 12.3 °C 1021.9 hPa SSW 5.0 km/h 23.3 km/h 82% 0.3 mm 67 W/m2
16:01 15.3 °C 11.9 °C 1021.9 hPa SSW 8.7 km/h 23.3 km/h 80% 0.3 mm 64 W/m2
16:06 15.4 °C 12.2 °C 1021.9 hPa South 9.7 km/h 21.9 km/h 81% 0.3 mm 61 W/m2
16:11 15.4 °C 12.0 °C 1021.9 hPa SSW 7.2 km/h 20.9 km/h 80% 0.3 mm 54 W/m2
16:16 15.4 °C 12.3 °C 1021.6 hPa SSW 8.7 km/h 20.9 km/h 82% 0.3 mm 33 W/m2
16:21 15.4 °C 12.3 °C 1021.9 hPa South 11.1 km/h 18.3 km/h 82% 0.3 mm 32 W/m2
16:26 15.4 °C 12.2 °C 1021.9 hPa South 18.3 km/h 25.6 km/h 81% 0.0 mm 33 W/m2
16:31 15.3 °C 11.9 °C 1021.9 hPa SSW 15.8 km/h 25.6 km/h 80% 0.0 mm 37 W/m2
16:36 15.3 °C 11.7 °C 1021.9 hPa SSW 13.4 km/h 21.9 km/h 79% 0.0 mm 31 W/m2
16:41 15.3 °C 11.7 °C 1021.9 hPa SSW 12.2 km/h 20.9 km/h 79% 0.0 mm 22 W/m2
16:46 15.3 °C 11.5 °C 1021.9 hPa SSW 11.1 km/h 19.5 km/h 78% 0.0 mm 13 W/m2
16:51 15.2 °C 11.2 °C 1021.9 hPa SSW 8.7 km/h 19.5 km/h 77% 0.0 mm 13 W/m2
16:56 15.3 °C 11.5 °C 1021.9 hPa SSW 11.1 km/h 18.3 km/h 78% 0.0 mm 9 W/m2
17:01 15.3 °C 11.5 °C 1021.9 hPa SSW 8.7 km/h 18.3 km/h 78% 0.0 mm 8 W/m2
17:06 15.3 °C 11.3 °C 1021.9 hPa SW 12.2 km/h 17.2 km/h 77% 0.0 mm 8 W/m2
17:11 15.3 °C 11.1 °C 1022.2 hPa SSW 11.1 km/h 19.5 km/h 76% 0.0 mm 7 W/m2
17:16 15.4 °C 11.2 °C 1021.9 hPa SSW 7.2 km/h 19.5 km/h 76% 0.0 mm 5 W/m2
17:21 15.4 °C 11.2 °C 1022.2 hPa SSW 8.7 km/h 19.5 km/h 76% 0.0 mm 2 W/m2
17:26 15.4 °C 11.2 °C 1022.2 hPa South 14.8 km/h 19.5 km/h 76% 0.0 mm 2 W/m2
17:31 15.4 °C 10.8 °C 1022.2 hPa South 8.7 km/h 19.5 km/h 74% 0.0 mm 1 W/m2
17:36 15.4 °C 11.2 °C 1022.2 hPa SSW 9.7 km/h 19.5 km/h 76% 0.0 mm 0 W/m2
17:41 15.4 °C 11.4 °C 1022.2 hPa South 13.4 km/h 19.5 km/h 77% 0.0 mm 0 W/m2
17:46 15.3 °C 11.1 °C 1022.2 hPa South 8.7 km/h 18.3 km/h 76% 0.0 mm 0 W/m2
17:51 15.3 °C 10.9 °C 1022.2 hPa South 11.1 km/h 18.3 km/h 75% 0.0 mm 0 W/m2
17:56 15.4 °C 11.2 °C 1022.2 hPa South 14.8 km/h 20.9 km/h 76% 0.0 mm 0 W/m2
18:01 15.4 °C 11.2 °C 1022.6 hPa South 8.7 km/h 20.9 km/h 76% 0.0 mm 0 W/m2
18:06 15.3 °C 11.1 °C 1022.6 hPa South 12.2 km/h 19.5 km/h 76% 0.0 mm 0 W/m2
18:11 15.2 °C 11.0 °C 1022.6 hPa South 8.7 km/h 17.2 km/h 76% 0.0 mm 0 W/m2
18:16 15.2 °C 11.2 °C 1022.6 hPa South 8.7 km/h 17.2 km/h 77% 0.0 mm 0 W/m2
18:21 15.3 °C 11.3 °C 1022.2 hPa South 9.7 km/h 17.2 km/h 77% 0.0 mm 0 W/m2
18:26 15.3 °C 11.5 °C 1022.2 hPa SSW 13.4 km/h 23.3 km/h 78% 0.0 mm 0 W/m2
18:31 15.3 °C 11.3 °C 1022.6 hPa SSW 8.7 km/h 23.3 km/h 77% 0.0 mm 0 W/m2
18:36 15.4 °C 11.4 °C 1022.6 hPa SSW 11.1 km/h 23.3 km/h 77% 0.0 mm 0 W/m2
18:41 15.4 °C 11.4 °C 1022.6 hPa South 3.5 km/h 17.2 km/h 77% 0.0 mm 0 W/m2
18:46 15.4 °C 11.4 °C 1022.6 hPa South 7.2 km/h 17.2 km/h 77% 0.0 mm 0 W/m2
18:51 15.4 °C 11.4 °C 1022.6 hPa South 9.7 km/h 14.8 km/h 77% 0.0 mm 0 W/m2
18:56 15.4 °C 11.0 °C 1022.6 hPa South 8.7 km/h 14.8 km/h 75% 0.0 mm 0 W/m2
19:01 15.4 °C 11.0 °C 1022.9 hPa South 8.7 km/h 13.4 km/h 75% 0.0 mm 0 W/m2
19:06 15.4 °C 11.2 °C 1022.6 hPa South 8.7 km/h 14.8 km/h 76% 0.0 mm 0 W/m2
19:11 15.3 °C 10.9 °C 1022.6 hPa Calm   14.8 km/h 75% 0.0 mm 0 W/m2
19:16 15.3 °C 11.1 °C 1022.9 hPa South 2.6 km/h 11.1 km/h 76% 0.0 mm 0 W/m2
19:21 15.2 °C 11.0 °C 1022.6 hPa SSW 5.0 km/h 11.1 km/h 76% 0.0 mm 0 W/m2
19:26 15.2 °C 11.0 °C 1022.9 hPa SW 5.0 km/h 11.1 km/h 76% 0.0 mm 0 W/m2
19:31 15.0 °C 11.2 °C 1022.9 hPa West 2.6 km/h 9.7 km/h 78% 0.0 mm 0 W/m2
19:36 14.5 °C 11.4 °C 1022.9 hPa WNW 5.0 km/h 7.2 km/h 82% 0.0 mm 0 W/m2
19:41 14.0 °C 11.5 °C 1022.9 hPa Calm   11.1 km/h 85% 0.0 mm 0 W/m2
19:46 13.8 °C 11.7 °C 1022.9 hPa WNW 2.6 km/h 11.1 km/h 87% 0.0 mm 0 W/m2
19:51 13.7 °C 11.8 °C 1022.6 hPa Calm   6.1 km/h 88% 0.0 mm 0 W/m2
19:56 13.6 °C 11.7 °C 1022.9 hPa Calm   6.1 km/h 88% 0.0 mm 0 W/m2
20:01 13.6 °C 11.8 °C 1022.6 hPa NW 6.1 km/h 7.2 km/h 89% 0.0 mm 0 W/m2
20:06 13.6 °C 12.0 °C 1022.9 hPa Calm   8.7 km/h 90% 0.0 mm 0 W/m2
20:11 13.5 °C 12.1 °C 1022.9 hPa NW 6.1 km/h 8.7 km/h 91% 0.0 mm 0 W/m2
20:16 13.4 °C 12.1 °C 1022.9 hPa NNW 7.2 km/h 11.1 km/h 92% 0.0 mm 0 W/m2
20:21 13.4 °C 12.3 °C 1022.9 hPa NNW 1.1 km/h 11.1 km/h 93% 0.0 mm 0 W/m2
20:26 13.4 °C 12.4 °C 1022.9 hPa NW 3.5 km/h 9.7 km/h 94% 0.0 mm 0 W/m2
20:31 13.3 °C 12.3 °C 1022.9 hPa NNW 2.6 km/h 8.7 km/h 94% 0.0 mm 0 W/m2
20:36 13.3 °C 12.5 °C 1022.9 hPa Calm   7.2 km/h 95% 0.0 mm 0 W/m2
20:41 13.3 °C 12.5 °C 1022.9 hPa Calm   6.1 km/h 95% 0.0 mm 0 W/m2
20:46 13.2 °C 12.4 °C 1022.9 hPa Calm   7.2 km/h 95% 0.0 mm 0 W/m2
20:51 13.2 °C 12.4 °C 1022.9 hPa Calm   7.2 km/h 95% 0.0 mm 0 W/m2
20:56 13.2 °C 12.4 °C 1022.9 hPa Calm     95% 0.0 mm 0 W/m2
21:01 13.1 °C 12.5 °C 1022.9 hPa Calm     96% 0.0 mm 0 W/m2
21:06 13.1 °C 12.5 °C 1022.9 hPa Calm   5.0 km/h 96% 0.0 mm 0 W/m2
21:11 13.1 °C 12.5 °C 1022.9 hPa Calm   5.0 km/h 96% 0.0 mm 0 W/m2
21:16 13.1 °C 12.5 °C 1022.9 hPa Calm   5.0 km/h 96% 0.0 mm 0 W/m2
21:21 13.1 °C 12.5 °C 1022.9 hPa Calm   5.0 km/h 96% 0.0 mm 0 W/m2
21:26 13.1 °C 12.7 °C 1022.9 hPa Calm   5.0 km/h 97% 0.0 mm 0 W/m2
21:31 13.0 °C 12.6 °C 1022.9 hPa Calm   5.0 km/h 97% 0.0 mm 0 W/m2
21:36 13.0 °C 12.6 °C 1022.9 hPa Calm     97% 0.0 mm 0 W/m2
21:41 13.0 °C 12.6 °C 1022.9 hPa Calm     97% 0.0 mm 0 W/m2
21:46 13.0 °C 12.6 °C 1023.2 hPa Calm     97% 0.0 mm 0 W/m2
21:51 13.0 °C 12.6 °C 1022.9 hPa Calm     97% 0.0 mm 0 W/m2
21:56 13.0 °C 12.6 °C 1022.9 hPa Calm     97% 0.0 mm 0 W/m2
22:01 13.0 °C 12.6 °C 1023.2 hPa Calm     97% 0.0 mm 0 W/m2
22:06 13.0 °C 12.6 °C 1022.9 hPa Calm     97% 0.0 mm 0 W/m2
22:11 12.9 °C 12.4 °C 1022.9 hPa Calm     97% 0.0 mm 0 W/m2
22:16 12.9 °C 12.4 °C 1023.2 hPa Calm     97% 0.0 mm 0 W/m2
22:21 12.9 °C 12.4 °C 1022.9 hPa Calm     97% 0.0 mm 0 W/m2
22:26 12.9 °C 12.4 °C 1022.9 hPa Calm     97% 0.0 mm 0 W/m2
22:43 12.9 °C 12.4 °C 1022.9 hPa Calm     97% 0.0 mm 0 W/m2
22:48 12.9 °C 12.4 °C 1022.6 hPa Calm   1.1 km/h 97% 0.0 mm 0 W/m2
22:53 13.0 °C 12.6 °C 1022.9 hPa Calm   1.1 km/h 97% 0.0 mm 0 W/m2
22:58 13.0 °C 12.6 °C 1022.9 hPa Calm     97% 0.0 mm 0 W/m2
23:03 13.0 °C 12.6 °C 1022.6 hPa Calm   3.5 km/h 97% 0.0 mm 0 W/m2
23:08 13.0 °C 12.4 °C 1022.6 hPa Calm   8.7 km/h 96% 0.0 mm 0 W/m2
23:13 13.0 °C 12.2 °C 1022.6 hPa Calm   8.7 km/h 95% 0.0 mm 0 W/m2
23:18 13.0 °C 12.2 °C 1022.6 hPa Calm   5.0 km/h 95% 0.0 mm 0 W/m2
23:23 12.9 °C 11.9 °C 1022.6 hPa Calm   3.5 km/h 94% 0.0 mm 0 W/m2
23:28 12.9 °C 11.9 °C 1022.2 hPa Calm     94% 0.0 mm 0 W/m2
23:33 12.9 °C 11.9 °C 1022.6 hPa Calm     94% 0.0 mm 0 W/m2
23:38 12.9 °C 11.8 °C 1022.2 hPa Calm   5.0 km/h 93% 0.0 mm 0 W/m2
23:43 12.8 °C 11.7 °C 1022.2 hPa Calm   5.0 km/h 93% 0.0 mm 0 W/m2
23:48 12.7 °C 11.6 °C 1022.6 hPa Calm     93% 0.0 mm 0 W/m2
23:53 12.6 °C 11.5 °C 1022.2 hPa Calm     93% 0.0 mm 0 W/m2
23:58 12.6 °C 11.5 °C 1022.2 hPa Calm     93% 0.0 mm 0 W/m2
Northern Hawkes Bay. New Zealand Historic Data
Compliments of Weather Underground - 2 mb